Regional Weather Roundup
Issued by NWS

Home | Current Version | Previous Version | Graphics & Text | Print | Product List | Glossary Off
Versions: 1 2 3 4 5 6 7 8 9 10 11 12 13 14 15 16 17 18 19 20 21 22 23 24 25 26 27 28 29 30 31 32 33 34 35 36 37 38 39 40 41 42 43 44 45 46 47 48 49 50

000
ASUS43 KMKX 242200
RWRWI

WISCONSIN REGIONAL WEATHER ROUNDUP
NATIONAL WEATHER SERVICE MILWAUKEE/SULLIVAN WI
500 PM CDT TUE MAY 24 2016

NOTE: "FAIR" INDICATES FEW OR NO CLOUDS BELOW 12,000 FEET WITH NO
SIGNIFICANT WEATHER AND/OR OBSTRUCTIONS TO VISIBILITY.

WIZ001-002-006>008-014>016-023>028-242300-
NORTHWEST WISCONSIN

CITY           SKY/WX    TMP DP  RH WIND       PRES   REMARKS
SUPERIOR ARPT  SUNNY     63  57  81 NE8       29.91S
ASHLAND        PTSUNNY   68  62  81 NE9       29.92R
HAYWARD        SUNNY     79  56  45 VRB6      29.89S HX  80
SIREN          MOSUNNY   80  55  41 CALM      29.89S HX  80
CUMBERLAND     SUNNY     77  52  41 W5        29.90S
RICE LAKE      SUNNY     82  52  35 NW7       29.91R HX  81
CHETEK         MOSUNNY   81  55  39 NW6       29.90R HX  81
LADYSMITH      CLOUDY    77  55  47 W12       29.91R
EAU CLAIRE     NOT AVBL
MENOMONIE      MOSUNNY   84  51  31 W10       29.89R HX  82
NEW RICHMOND   SUNNY     82  47  30 W7        29.90S HX  80
OSCEOLA        SUNNY     82  54  37 W10       29.92R HX  81
$$

WIZ003>005-009-010-017-018-242300-
NORTH CENTRAL WISCONSIN

CITY           SKY/WX    TMP DP  RH WIND       PRES   REMARKS
MANITOWISH WTR MOSUNNY   77  55  46 W10       29.88S
ARBOR VITAE    SUNNY     77  54  44 SW10      29.88F
WOODRUFF       SUNNY     77  54  44 SW10      29.88F
RHINELANDER    MOSUNNY   77  55  46 W10       29.90F
EAGLE RIVER      N/A     75  55  49 SW8       29.89F
LAND O LAKES   MOSUNNY   76  53  44 SW7       29.89F
PHILLIPS       MOSUNNY   77  57  49 SW12      29.88F
TOMAHAWK       CLOUDY    76  54  45 W7        29.91S
MEDFORD        PTSUNNY   75  59  58 W7        29.91S
MERRILL        MOSUNNY   78  57  49 W10       29.91S
$$

WIZ029-030-035-036-043>047-242300-
CENTRAL WISCONSIN

CITY           SKY/WX    TMP DP  RH WIND       PRES   REMARKS
WAUSAU         MOSUNNY   80  54  40 W13       29.90R HX  80
MOSINEE        MOSUNNY   79  55  44 W12       29.92
MARSHFIELD     MOSUNNY   79  55  43 W10       29.91R
STEVENS POINT  MOSUNNY   79  57  45 SW13      29.91S HX  80
WAUPACA        MOSUNNY   84  54  36 W12       29.90S HX  82
WAUTOMA        NOT AVBL
WISC RAPIDS    MOSUNNY   82  55  39 SW6       29.92S HX  81
CAMP DOUGLAS   NOT AVBL
$$

WIZ011>013-019>022-031-037>040-048>050-242300-
NORTHEAST WISCONSIN

CITY           SKY/WX    TMP DP  RH WIND       PRES   REMARKS
ANTIGO         MOSUNNY   75  59  57 W9        29.92S
SHAWANO        MOSUNNY   77  66  68 NW3       29.90S
OCONTO         PTSUNNY   79  62  55 W7        29.88R HX  80
STURGEON BAY   NOT AVBL
GREEN BAY      MOSUNNY   82  57  42 W15       29.89R HX  82
MANITOWOC      NOT AVBL
APPLETON       PTSUNNY   81  55  41 SW13      29.89S HX  80
CLINTONVILLE   MOSUNNY   82  54  36 W13       29.89S HX  81
OSHKOSH        PTSUNNY   81  58  45 W8        29.91R HX  81
$$

WIZ032>034-041-042-053>061-242300-
SOUTHWEST WISCONSIN

CITY           SKY/WX    TMP DP  RH WIND       PRES   REMARKS
LA CROSSE      MOSUNNY   82  59  45 SW8       29.91R HX  82
SPARTA         PTSUNNY   81  58  45 W7        29.92S HX  81
VIROQUA        PTSUNNY   80  53  38 W6        29.94S HX  80
BOSCOBEL       MOSUNNY   84  58  40 W7        29.92R HX  83
PRAIRIE DU CHI MOSUNNY   83  52  34 S5        29.91S HX  82
PLATTEVILLE    MOSUNNY   81  60  48 SW7       29.94S HX  81
$$

WIZ056-057-062-063-064-067-068-242300-
SOUTH CENTRAL WISCONSIN

CITY           SKY/WX    TMP DP  RH WIND       PRES   REMARKS
REEDSBURG      PTSUNNY   82  58  43 W8        29.92R HX  82
BARABOO/DELLS  MOSUNNY   82  54  38 W10       29.93R HX  81
LONE ROCK      NOT AVBL
MINERAL POINT  MOSUNNY   81  55  41 SW12      29.94S HX  80
MADISON        PTSUNNY   81  59  47 VRB5      29.92S HX  81
MIDDLETON      MOSUNNY   83  60  45 SW12G17   29.93S HX  83
WATERTOWN      PTSUNNY   82  60  47 W8        29.91S HX  82
MONROE         PTSUNNY   81  55  41 SW13      29.93S HX  80
JANESVILLE     PTSUNNY   82  55  39 SW9       29.92R HX  82
$$

WIZ051-052-058>065-066-070>072-242300-
SOUTHEAST WISCONSIN

CITY           SKY/WX    TMP DP  RH WIND       PRES   REMARKS
MILWAUKEE      CLOUDY    84  55  36 SW14      29.92R HX  83
WAUKESHA       NOT AVBL
MILWAUKEE/TIMM SUNNY     81  55  41 W10       29.92S HX  80
RACINE         MOSUNNY   77  53  43 S12       29.93F
BURLINGTON     SUNNY     85  52  31 SW15      29.92S HX  83
KENOSHA        SUNNY     85  54  34 SW14G23   29.92F HX  83
FOND DU LAC    PTSUNNY   81  58  45 SW10      29.91R HX  81
SHEBOYGAN      CLOUDY    73  63  70 SE9       29.93R
WEST BEND      PTSUNNY   79  59  50 SW9       29.92F HX  80
JUNEAU         MOSUNNY   80  59  48 SW18      29.93F HX  80
$$

LSZ147-162-242300-
LAKE SUPERIOR

STATION/POSITION TIME  TEMP    WIND        PRES    WAVE
                       AIR SEA DIR/SP/G            HT/PER
                 (UTC) (F)     (DEG/KT/KT) (MB)    (FT/S)
W MID LAKE BUOY  2050   43 38   20/ 14/ 14 1013.7F   0
DEVILS ISLAND    2100   53      50/ 13/ 13 1013.5F
SAXON HARBOR     2100   49     360/  7/  9 1012.9R
$$

LMZ867-665-643>646-242300-
LAKE MICHIGAN

STATION/POSITION TIME  TEMP    WIND        PRES    WAVE
                       AIR SEA DIR/SP/G            HT/PER
                 (UTC) (F)     (DEG/KT/KT) (MB)    (FT/S)
CHAMBERS ISLAND  2100   73     130/  4/  9 1011.9
N MID LAKE BUOY  2050   49 44  210/ 12/ 14 1012.6F   2/ 4
NORTHPORT PIER   2100   61     150/  6/ 12 1012.5R
SISTER BAY       2134   74     160/ 10/ 12   N/A
ALGOMA LAKESHORE 2117          210/ 12/ 13   N/A
KEWAUNEE LAKESHO 2112          180/ 14/ 16 1012.0F
SHEBOYGAN LAKESH 2100   59     160/ 13/ 14 1013.7F
PORT WASHINGTON  2100   63     150/  2/  6 1014.6S
S MID LAKE BUOY  2050   55 48  130/  8/  8 1014.0F   1
KENOSHA   LAKESH 2100   62     170/ 10/ 14 1013.2F
$$

TC  - TEMPERATURE IN CELSIUS
VSB - VISIBILITY IN STATUTE MILES
WCI - WIND CHILL INDEX
HX  - HEAT INDEX





USA.gov is the U.S. government's official web portal to all federal, state and local government web resources and services.